Regional Weather Roundup
Issued by NWS Upton, NY

Current Version | Previous Version | Text Only | Print | Product List | Glossary Off
Versions: 1 2 3 4 5 6 7 8 9 10 11 12 13 14 15 16 17 18 19 20 21 22 23 24 25 26 27 28 29 30 31 32 33 34 35 36 37 38 39 40 41 42 43 44 45 46 47 48 49 50
254 ASUS41 KOKX 151308 RWROKX REGIONAL WEATHER ROUNDUP NATIONAL WEATHER SERVICE NEW YORK NY 800 AM EST FRI DEC 15 2017 NOTE: "FAIR" INDICATES FEW OR NO CLOUDS BELOW 12,000 FEET WITH NO SIGNIFICANT WEATHER AND/OR OBSTRUCTIONS TO VISIBILITY. NYZ071-072-176-178-NJZ106-104-151400- NEW YORK CITY METRO AREA CITY SKY/WX TMP DP RH WIND PRES REMARKS Central Park CLOUDY 22 9 57 CALM 30.11F Bronx Bot Gard N/A 23 9 54 NW1 30.10S Bronx Lehman C NOT AVBL LaGuardia APRT CLOUDY 24 9 52 N3 30.11S Queens College NOT AVBL Kennedy INTL CLOUDY 22 13 68 E3 30.13S Breezy Point N/A N/A N/A N/A NW1 N/A Brooklyn Coll NOT AVBL Staten Island NOT AVBL Newark/Liberty CLOUDY 22 8 55 SW5 30.12S WCI 16 Teterboro CLOUDY 21 11 65 CALM 30.10F $$ NYZ177-179-078>081-151400- LONG ISLAND NEW YORK CITY SKY/WX TMP DP RH WIND PRES REMARKS Jones Beach N/A N/A N/A N/A CALM N/A Wantagh NOT AVBL Matinecock PT N/A N/A N/A N/A S3 N/A Farmingdale PTCLDY 20 11 68 CALM 30.11F MacArthur/ISP MOCLDY 20 12 71 CALM 30.10S Shirley CLOUDY 18 12 77 CALM 30.12S Mt Sinai Harb N/A N/A N/A N/A S5 N/A Westhampton MOCLDY 11 7 84 CALM 30.13S East Hampton FAIR 13 9 84 CALM 30.12R Southold NOT AVBL Montauk N/A 26 15 63 N5 30.13R WCI 20 $$ NYZ052-065-067-151400- HUDSON VALLEY CITY SKY/WX TMP DP RH WIND PRES REMARKS White Plains CLOUDY 19 8 62 CALM 30.07S Larchmont Harb N/A N/A N/A N/A W5 N/A Croton On Huds N/A N/A N/A N/A NE1 N/A Somers NOT AVBL Brewster NOT AVBL Newburgh NOT AVBL Montgomery CLOUDY 11 6 81 CALM 30.06R Otisville NOT AVBL Warwick NOT AVBL Suffern NOT AVBL Poughkeepsie CLOUDY 10 5 80 CALM 30.09S Albany CLOUDY 11 5 77 CALM 30.08R $$ NJZ001-105-106-008-010-013-015-019>022-104-151400- NEW JERSEY CITY SKY/WX TMP DP RH WIND PRES REMARKS Newark/Liberty CLOUDY 22 8 55 SW5 30.12S WCI 16 Teterboro CLOUDY 21 11 65 CALM 30.10F Caldwell CLOUDY 17 8 67 CALM 30.11S Somerville CLOUDY 12 10 92 MISG 30.10F Linden FAIR 21 8 57 CALM 30.12S Perth Amboy N/A N/A N/A N/A SW7 N/A Sussex PTCLDY 9 5 84 CALM 30.06S Andover NOT AVBL Trenton CLOUDY 19 11 70 CALM 30.11S Millville CLOUDY 25 13 60 NE5 30.12S WCI 19 Atlantic City MOCLDY 23 17 78 CALM 30.12F Wrightstown CLOUDY 20 12 70 CALM 30.09F Toms River PTCLDY 18 13 80 CALM 30.13F Belmar CLOUDY 19 10 68 SW3 30.12S $$ PAZ047>061-062-071-151400- EASTERN PENNSYLVANIA CITY SKY/WX TMP DP RH WIND PRES REMARKS Philadelphia CLOUDY 25 10 53 SE5 30.13F WCI 19 Allentown CLOUDY 15 8 73 CALM 30.10R Scranton CLOUDY 10 5 80 SE3 30.03S $$ CTZ002-004>006-009-010-012-RIZ004-006-007-MAZ004-011-015-151400- SOUTHERN NEW ENGLAND IN CT CITY SKY/WX TMP DP RH WIND PRES REMARKS Bradley INTL MOCLDY 12 7 80 CALM 30.09R Hartford CLOUDY 12 9 87 SE3 30.11S Danbury CLOUDY 14 8 77 CALM 30.09R Wtrbury/Oxford CLOUDY 9 5 84 CALM 30.06R Norwalk Harbor N/A N/A N/A N/A NW5 N/A Bridgeport CLOUDY 19 8 62 CALM 30.12R Meriden CLOUDY 8 5 87 CALM 30.11R New Haven CLOUDY 17 8 67 CALM 30.12R Chester FAIR 14 5 67 SW5 30.08R WCI 6 Groton PTCLDY 17 7 64 NW5 30.11R WCI 10 Wilimantic PTCLDY 8 5 87 CALM 30.09S IN RI CITY SKY/WX TMP DP RH WIND PRES REMARKS Providence MOCLDY 14 6 70 W3 30.10S Block Island CLEAR 22 14 71 N3 30.12R Westerly CLOUDY 12 7 80 CALM 30.12R IN MA CITY SKY/WX TMP DP RH WIND PRES REMARKS Boston CLOUDY 19 9 65 SW9 30.09R WCI 8 Worcester CLOUDY 14 6 70 W8 30.00R WCI 3 Westfield PTCLDY 12 9 87 CALM 30.08R Provincetown CLEAR 23 15 71 W7 30.10R WCI 15 Nantucket CLOUDY 20 11 68 CALM 30.09S $$ ANZ330-335-338-340-345-350-353-355-151400- COASTAL MARINE OBSERVATIONS STATION/POSITION TIME SKY/WX TEMP WIND PRES VSBY WAVE AIR SEA DIR/SP/G HT/PER (UTC) (F) (DEG/KT/KT) (MB) (MI) (FT/S) NY HARB ENTRANCE 1150 27 49 350/ 4/ 8 1019.4 1/ 8 20 S FIRE ISLAND 1150 28 51 20/ 2/ 4 1020.0 2/ 8 GREAT SOUTH BAY 1230 24 45 280/ 2/ 4 N/A HUDSON CANYON 1150 34 55 10/ 4/ 6 1019.2 4/ 5 KINGS POINT 1230 23 42 130/ 2/ 3 1020.3 EXECUTION ROCKS 1230 24 290/ 2/ 6 N/A WESTERN LI SOUND NOT AVBL CENTRAL LI SOUND 1230 25 360/ 6/ 8 N/A 1 ROBBINS REEF 1236 23 320/ 5/ 6 1020.3 $$ >>>>>>>>>>>>>>>>>>>>>>>>>>>> KEY <<<<<<<<<<<<<<<<<<<<<<<<<<< > < > SKY/WX - Sky Condition/Present Weather < > TMP - Temperature in Fahrenheit < > DP - Dew Point in Fahrenheit < > RH - Relative Humidity in Percent < > WIND - Direction (from) and Speed in MPH < > PRES - Mean Sea Level Pressure (inches of Hg) < > WCI - Wind Chill Index < > VSB - VISIBILITY IN MILES < > HX - HEAT INDEX < > TC - TEMPERATURE IN CELSIUS < > VRB - VARIABLE WIND DIRECTION < > < >>>>>>>>>>>>>>>>>>>>>>>>>>>> KEY <<<<<<<<<<<<<<<<<<<<<<<<<<<

USA.gov is the U.S. government's official web portal to all federal, state and local government web resources and services.